Regional Weather Roundup
Issued by NWS Pendleton, OR

Home | Current Version | Previous Version | Text Only | Print | Product List | Glossary On
Versions: 1 2 3 4 5 6 7 8 9 10 11 12 13 14 15 16 17 18 19 20 21 22 23 24 25 26 27 28 29 30 31 32 33 34 35 36 37 38 39 40 41 42 43 44 45 46 47 48 49 50
000
ASUS46 KPDT 201610
RWRPDT
PENDLETON REGIONAL WEATHER ROUNDUP
NATIONAL WEATHER SERVICE PENDLETON OREGON
900 AM PDT SAT SEP 20 2014

NOTE: FAIR INDICATES FEW OR NO CLOUDS BELOW 12,000 FEET WITH NO
SIGNIFICANT WEATHER AND/OR OBSTRUCTIONS TO VISIBILITY.

# INDICATES UNOFFICIAL STATION AND DATA

WAZ520-201710-
EAST SLOPES OF WASHINGTON CASCADES

CITY            SKY/WX      TMP DP  RH  WIND    PRES   REMARKS
#CLE ELUM HS    N/A         53  48  83  CALM    30.12S
#CLE ELUM 2NW   N/A         56  48  74  CALM    N/A
#CLE ELUM LAKE  N/A         54  49  83  CALM    30.08R
#CLIFFDEL 2NW   N/A         46  45  96  CALM    N/A
#EASTON DOT     N/A         51  49  93  CALM    N/A
#GLENWOOD       N/A         50  49  96  CALM    30.08F
#MANASTASH CYN  N/A         57  46  67  CALM    30.15S
#NELSON         N/A         47  46  96  CALM    30.13S
#NELSON 3SW     N/A         54  48  80  CALM    30.29S
#NILE           N/A         53  47  80  W5      29.40S
#PEOH POINT     N/A         61  47  60  E7      N/A
#RONALD 2NW     N/A         53  48  83  CALM    30.05S
#SNOWDEN        N/A          0  -78  1  CALM    N/A
#TEANAWAY 4NE   N/A         51  49  93  CALM    N/A
#TROUT LAKE 1NE N/A         56  51  83  CALM    30.06F
$$

WAZ521-201710-
SIMCOE HIGHLANDS

CITY            SKY/WX      TMP DP  RH  WIND    PRES   REMARKS
#BICKLETON HS   N/A         66  40  38  NE7     30.21S
#SATUS PASS DOT N/A         56  47  72  CALM    N/A
#CENTERVILLE 4W N/A         60  52  75  N1      29.87R
#CENTERVILLE 1SWN/A         55  49  80  CALM    30.04F
#GOLDENDALE     N/A         56  49  77  E7      N/A
#GOLDENDALE 1NE N/A         58  48  69  S2      N/A
#GOLDENDALE 1S  N/A         59  51  75  CALM    30.08S
#GOLDENDALE 5WNWN/A         62  51  67  CALM    30.04S
#GOODNOE HILLS  N/A         68  53  59  E3      30.04R
#LYLE 6NE       N/A         69  52  55  CALM    30.02R
$$

WAZ026-201710-
KITTITAS VALLEY

CITY            SKY/WX      TMP DP  RH  WIND    PRES   REMARKS
ELLENSBURG AP   SUNNY       61  51  70  CALM    30.17S
#ELLENSBURG CWU N/A         58  52  80  CALM    30.08S
#ELLENSBURG 3NE N/A         57  52  83  CALM    30.16S
#ELLENSBURG     N/A         63  55  75  N1      N/A
#KITTITAS 3S    N/A         52  50  93  CALM    30.10F
#RYEGRASS DOT   N/A         59  52  78  W1      N/A
#THORP 6N       N/A         55  49  80  N2      30.13R
$$

WAZ027-201710-
YAKIMA VALLEY

CITY            SKY/WX      TMP DP  RH  WIND    PRES   REMARKS
YAKIMA AIRPORT  SUNNY       64  51  63  W7      30.14S
YAKIMA-VAGABOND SUNNY       63  50  62  NW5     30.16S
#COWICHE 1N     N/A         61  51  70  NW3     30.31R
#DONALD 2NE     N/A         77  54  45  CALM    30.45R
#GRANDVIEW      N/A         63  52  67  CALM    30.11R
#MABTON         N/A         59  54  83  CALM    30.11S
#MOXEE 2E       N/A         62  40  44  NW2     30.04F
#NACHES 2SW     N/A         62  53  72  W6      30.16R
#TERRACE HTS    N/A         59  52  78  CALM    30.05S
#TOPPENISH      N/A         62  52  70  W1      30.01S
#WAPATO 4NE     N/A         77  54  45  CALM    30.45R
#WEST VALLEY    N/A         62  52  70  CALM    30.08S
#W YAKIMA       N/A         63  52  67  NW2     30.09S
#WHITE SWAN 5E  N/A         64  54  70  CALM    30.10S
#WILEY CITY 3W  N/A         64  58  81  CALM    30.14R
$$

WAZ028-201710-
LOWER COLUMBIA BASIN...WASHINGTON

CITY            SKY/WX      TMP DP  RH  WIND    PRES   REMARKS
HANFORD         SUNNY       70  51  51  NW12    30.12R
PASCO           SUNNY       63  54  72  NW5     30.12R
PROSSER AWOS    N/A         63  55  75  SW2     30.15R
RICHLAND AWOS   SUNNY       63  54  72  CALM    30.12R
#BASIN CITY 5SW N/A         65  56  73  CALM    30.12R
#BENTON CITY    N/A         62  55  78  CALM    30.00S
#CONNELL 5N     N/A         66  49  54  NW1     30.09S
#CONNELL 5NW    N/A         62  53  72  N1      30.06S
#ELTOPIA        N/A         62  51  67  N3      30.06R
#ELTOPIA 6NW    N/A         63  53  70  N8      29.09R
#KENNEWICK 3S   N/A         61  55  81  CALM    30.09R
#PASCO-BROADMOORN/A         68  56  65  E1      30.00R
#PATERSON       N/A         64  53  67  CALM    30.06S
#PROSSER DOT    N/A         60  54  81  CALM    N/A
#PROSSER        N/A         62  51  67  W3      30.08S
#SAGEMOOR 2W    N/A         62  52  70  N7      29.95R
#TOUCHET 2S     N/A         56  49  77  CALM    30.08S
#WEST PASCO     N/A         63  55  75  NE1     30.13R
$$

WAZ029-201710-
FOOTHILLS OF THE BLUES...WASHINGTON

CITY            SKY/WX      TMP DP  RH  WIND    PRES   REMARKS
WALLA WALLA AP  SUNNY       67  47  49  CALM    30.11S
#DAYTON SCHOOL  N/A         65  45  48  VRB1    30.10F
#LOWDEN 2SE     N/A         58  50  75  CALM    30.07S
#PLEASANT VIEW 1N/A         60  46  60  N5      30.11R
#PRESCOTT       N/A         64  49  58  CALM    30.07S
#SUDBURY        N/A         65  N/A N/A CALM    N/A
#WHITMAN COLLEGEN/A         66  50  56  CALM    30.11S
#WAITSBURG 8N   N/A         74  36  25  CALM    30.06R
#WALLA WALLA 5E N/A         67  49  52  W7      N/A
#WALLA WALLA U  N/A         63  49  60  CALM    30.07S
#WHITMAN MISSIONN/A         55  50  83  CALM    30.09S
$$

WAZ030-201710-
BLUE MOUNTAINS...WASHINGTON

CITY            SKY/WX      TMP DP  RH  WIND    PRES   REMARKS
$$

ORZ009-041-WAZ024-201710-
COLUMBIA RIVER GORGE

CITY            SKY/WX      TMP DP  RH  WIND    PRES   REMARKS
HOOD RIVER AP   SUNNY       59  52  78  S3      30.10S
THE DALLES AP   SUNNY       63  52  67  CALM    30.10R
#ARLINGTON AIRPON/A         66  51  58  E5      29.96R
#ARLINGTON HS   N/A         65  50  58  CALM    29.99S
#MARYHILL       N/A         64  52  65  N1      N/A
#MARYHILL 2W    N/A         64  56  75  CALM    N/A
#MOSIER 1S      N/A         61  48  62  CALM    30.12R
#MURDOCK        N/A         64  56  75  CALM    30.10R
#RUFUS DOT      N/A         N/A N/A N/A S2      N/A

$$

ORZ510-201710-
NORTH CENTRAL OREGON

CITY            SKY/WX      TMP DP  RH  WIND    PRES   REMARKS
#CHENOWITH 1W   N/A         66  53  63  E3      N/A
#COW CYN RST AREN/A         66  47  50  E1      N/A
#DUFUR 9E       N/A         64  51  63  E15     30.08R
#GRASS VALLEY   N/A         64  51  63  E2      N/A
#GRASS VALLEY 1SN/A         65  52  63  E3      30.07S
#KENT DOT       N/A         64  48  56  E6      N/A
#MAUPIN SCHOOL  N/A         61  49  65  CALM    28.99R
#MORO SCHOOL    N/A         64  57  78  NE1     30.12R
#SHANIKO 5WSW   N/A         63  46  54  SE5     N/A
#SHANIKO 4NW    N/A         63  46  54  E7      30.16R
#TYGH VALLEY 2NEN/A         60  50  69  CALM    30.06S
#WAPANITIA AIRPON/A         62  50  65  CALM    30.06S
#WASCO DOT      N/A         67  54  63  CALM    N/A
#WASCO 5NE      N/A         66  53  63  CALM    30.06R
$$

ORZ511-201710-
CENTRAL OREGON

CITY            SKY/WX      TMP DP  RH  WIND    PRES   REMARKS
BEND AIRPORT    SUNNY       63  46  54  CALM    30.17S
MADRAS AIRPORT  SUNNY       59  46  62  S3      30.15S
REDMOND AIRPORT SUNNY       58  43  57  S3      30.15R
#BEND 6E        N/A         62  46  56  CALM    29.98F
#BEND 1SW       N/A         51  46  83  W1      N/A
#BEND-AWBREY    N/A         59  49  69  CALM    30.03S
#BEND-KIM LN    N/A         55  48  77  CALM    30.14R
#CROOKED RVR RANN/A         59  47  64  S1      30.04S
#CULVER         N/A         59  49  69  CALM    30.11R
#LAKE BILLY CHINN/A         62  26  25  CALM    30.17S
#POWELL BUTTE 3EN/A         53  44  71  E1      N/A
#POWELL BUTTE   N/A         62  50  65  NW1     29.79R
#PRINEVILLE 3N  N/A         54  47  77  CALM    30.02S
#WARM SPRINGS   N/A         59  48  67  CALM    30.09S


ORZ509-201710-
EAST SLOPES OF OREGON CASCADES

CITY            SKY/WX      TMP DP  RH  WIND    PRES   REMARKS
#BLUE BOX PASS  N/A         55   3  12  E1      N/A
#CAMP SHERMAN   N/A         41  39  93  CALM    30.15S
#LA PINE DOT    N/A         55  35  47  E1      N/A
#LA PINE 4NW    N/A         52  41  66  CALM    30.10S
#LAVA BUTTE DOT N/A         62  45  54  CALM    N/A
#SISTERS AIRPOR N/A         57  50  77  CALM    29.91S
#SISTERS ODOT   N/A         61  N/A N/A CALM    N/A
#SISTERS 3N     N/A         52  45  77  CALM    N/A
#SUNRIVER       N/A         51  44  77  CALM    29.96S
#SUNRIVER AP    N/A         48  43  83  CALM    30.03R
#SUTTLE LK DOT  N/A         47  47  100 E15     N/A    WCI 41
#TUMALO 3W      N/A         62  48  60  CALM    29.90S
#WANOGA BUTTE D N/A         59  41  51  NE6     N/A

$$

ORZ044-201710-
LOWER COLUMBIA BASIN...OREGON

CITY            SKY/WX      TMP DP  RH  WIND    PRES   REMARKS
HERMISTON       SUNNY       66  48  52  CALM    30.10R
#BOARDMAN SCHOOLN/A         64  50  60  CALM    30.08S
#BOARDMAN 3W    N/A         65  57  75  E3      29.79S
#BOARDMAN 8SW   N/A         64  54  70  W1      30.08R
#ECHO 8SW       N/A         64  48  56  CALM    30.07S
#IONE SCHOOL    N/A         62  48  60  CALM    30.09S
#IRRIGON 4NW    N/A         63  55  75  N1      N/A
#UMATILLA SCHOOLN/A         62  54  75  CALM    30.10R
#UMATILLA       N/A         64  49  58  CALM    30.07R
$$

ORZ507-201710-
NORTHERN FOOTHILLS OF THE BLUES

CITY            SKY/WX      TMP DP  RH  WIND    PRES   REMARKS
PENDLETON AIRPT SUNNY       63  44  50  CALM    30.11S
#ADAMS 3WNW     N/A         67  48  50  CALM    30.06F
#ATHENA         N/A         64  50  60  CALM    30.09S
#HELIX SCHOOL   N/A         61  50  67  CALM    30.05F
#HELIX 3N       N/A         68  48  49  N1      30.08S
#HOLDMAN 5SE    N/A         68  50  53  CALM    30.11S
#HOLDMAN 6E     N/A         66  48  52  S3      29.87S
#M-F GROVE ELEM N/A         66  46  48  CALM    30.09S
#M-FREEWATER 5SEN/A         67  51  56  CALM    30.09F
#PENDLETON DNTN N/A         58  45  62  CALM    30.11S
#PDT AQUATIC CTRN/A         60  45  58  CALM    30.09S
#PENDLETON 5NE  N/A         59  47  64  CALM    30.07R
#PDT SUNRIDGE   N/A         58  47  67  CALM    30.11F
#PENDLETON 7NW  N/A         67  50  54  CALM    25.21F
#PILOT ROCK     N/A         69  46  44  CALM    30.12F
#TUTUILLA       N/A         61  47  60  W2      30.09S
#UMAPINE 2E     N/A         61  51  70  CALM    30.07S
#WESTON SCHOOL  N/A         66  46  48  E2      30.07F

$$

ORZ508-201710-
SOUTHERN FOOTHILLS OF THE BLUES

CITY            SKY/WX      TMP DP  RH  WIND    PRES   REMARKS
LEXINGTON       SUNNY       66  48  52  N6      30.13R
#AJAX           N/A         64  47  54  NE6     30.05R
#CONDON SCHOOL  N/A         66  53  63  CALM    30.09R
#CONDON 5W      N/A         62  50  65  NE8     30.13R
#FOSSIL SCHOOL  N/A         57  47  69  CALM    30.10S
#HEPPNER EOC    N/A         65  47  52  CALM    30.00S
#HEPPNER 4NE    N/A         67  49  52  E6      30.04S
#LEXINGTON 2SE  N/A         65  49  56  CALM    30.07F
#MIKKALO        N/A         65  51  60  CALM    30.11S
#OLEX 4N        N/A         65  51  60  CALM    30.09R
#RUGGS 5NE      N/A         68  46  45  E6      30.30S
#RUGGS 2SW      N/A         65  45  48  CALM    30.06R

$$

ORZ502-503-201710-
BLUE MOUNTAINS

CITY            SKY/WX      TMP DP  RH  WIND    PRES   REMARKS
MEACHAM         SUNNY       56  42  59  CALM    30.18F
#BATTLE MTN DOT N/A         58  52  80  CALM    N/A
#HARDMAN 10S    N/A         61  44  53  CALM    30.22R
#HEPPNER 15SE   N/A         60  46  60  CALM    30.10S
#LADD CYN SMT   N/A         62  42  48  NW6     N/A
#LADD CREEK ODOTN/A         49  46  89  NE1     N/A
#N POWDER DOT   N/A         58  47  67  SW1     N/A
#PIKES PEAK     N/A         67  46  47  NE2     27.99S
#TOLLGATE       N/A         59  48  67  NE3     30.14S
#TOLLGATE 9W    N/A         62  45  54  E1      N/A
#TROY SCHOOL    N/A         62  49  62  S1      29.98F
#UKIAH          N/A         46  41  83  CALM    30.16S
#WESTON 4E      N/A         70  47  44  CALM    29.98F
$$

ORZ505-201710-
JOHN DAY BASIN

CITY            SKY/WX      TMP DP  RH  WIND    PRES   REMARKS
JOHN DAY        SUNNY       60  43  53  E7      30.18S
#JOHN DAY KJDY  N/A         56  46  69  CALM    30.31R
#MONUMENT HS    N/A         57  43  59  CALM    30.15S
#MT. VERNON 5SE N/A         63  45  52  E1      30.14S
#WINLOCK        N/A         68  47  47  CALM    30.22F
$$

ORZ506-201710-
OCHOCO AND JOHN DAY HIGHLANDS

CITY            SKY/WX      TMP DP  RH  WIND    PRES   REMARKS
#BUCK CREEK DOT N/A         67  50  54  E7      N/A
#HORSE RIDGE DO N/A         54  37  52  CALM    N/A
#KEYES SMT DOT  N/A         61  -46  1  SE7     N/A
#PAULINA SCHOOL N/A         55  40  57  CALM    30.16R
#PINE MTN OBS   N/A         59  41  51  E7      N/A
#PRAIRIE CITY   N/A         55  45  69  CALM    30.16F
#SENECA 9NW     N/A         45  41  86  CALM    30.09S
$$

ORZ049-201710-
GRANDE RONDE VALLEY

CITY            SKY/WX      TMP DP  RH  WIND    PRES   REMARKS
LA GRANDE       SUNNY       57  37  47  NE5     30.17S
#COVE           N/A         56  48  74  CALM    30.08F
#COVE 6NW       N/A         44  42  93  CALM    30.16R
#ELGIN 3N       N/A         63  48  58  CALM    29.88F
#ELGIN 1E       N/A         51  45  80  CALM    N/A
#IMBLER SCHOOL  N/A         56  45  66  E5      30.12S
#LADD CYN DOT   N/A         58  46  64  NE1     N/A
#LA GRANDE ELEM N/A         62  46  56  NW1     30.14S
#UNION 1S       N/A         56  46  69  CALM    30.01S
$$

ORZ050-201710-
WALLOWA COUNTY

CITY            SKY/WX      TMP DP  RH  WIND    PRES   REMARKS
#ENTERPRISE AP  N/A         51  41  68  N1      30.13S
#ENTERPRISE HS  N/A         53  45  74  CALM    30.21S
#IMNAHA SCHOOL  N/A         58  42  55  CALM    30.09F
#IMNAHA 10S     N/A         52  43  71  CALM    30.18S
#JOSEPH 3N      N/A         52  46  80  CALM    30.21S
#JOSEPH 3W      N/A         64  44  48  NE1     30.05S
#LOSTINE        N/A         57  46  67  CALM    29.92F
#MT HOWARD 8000 N/A         53  38  57  CALM    30.40R
#PROMISE 1S     N/A         60  47  62  CALM    30.20F
#SHEEP RDG 7000 N/A         54  42  64  CALM    30.08S
#WALLOWA SCHOOL N/A         52  45  77  CALM    31.04F



$$



USA.gov is the U.S. government's official web portal to all federal, state and local government web resources and services.